Foz Do Iguacu Aeroporto, Brazil

5:19 PM BRT on July 23, 2016 (GMT -0300)
Cataratas International

Weather History for SBFI - September, 2013

Change the Weather History Date:

Thursday, September 19, 2013

  Actual Average Record
Temperature  
Mean Temperature 57 °F -  
Max Temperature 73 °F 78 °F 99 °F (2015)
Min Temperature 41 °F 56 °F 41 °F (2013)
Degree Days  
Heating Degree Days 8    
Growing Degree Days 7 (Base 50)    
Moisture  
Dew Point 46 °F    
Average Humidity 66    
Maximum Humidity 93    
Minimum Humidity 22    
Precipitation  
Precipitation 0.00 in - - ()
Sea Level Pressure  
Sea Level Pressure 30.11 in    
Wind  
Wind Speed 4 mph ()    
Max Wind Speed 8 mph    
Max Gust Speed -    
Visibility 8.8 miles    
Events      
Averages and records for this station are not official NWS values.
T = Trace of Precipitation, MM = Missing Value Source: Averaged Metar Reports

Daily Weather History Graph

Daily Weather History Graph

Search for Another Location

Airport or City:

Trip Planner

Search our weather history database for the weather conditions in past years. The results will help you decide how hot, cold, wet, or windy it might be!

Date:

Astronomy

Sep. 19, 2013 Rise Set
Actual Time 6:30 AM BRT 6:33 PM BRT
Civil Twilight 6:07 AM BRT 6:55 PM BRT
Nautical Twilight 5:41 AM BRT 7:22 PM BRT
Astronomical Twilight 5:14 AM BRT 7:49 PM BRT
Moon 6:54 PM BRT (9/19) 6:18 AM BRT (9/19)
Length of Visible Light 12h 48m
Length of Day
12h 02m
Full, 100% of the Moon is Illuminated
Sep 19
Full
Sep 27
Last Quarter
Oct 4
New
Oct 11
First Quarter
Oct 18
Full

Hourly Weather History & Observations

Time (BRT) Temp. Windchill Dew Point Humidity Pressure Visibility Wind Dir Wind Speed Gust Speed Precip Events Conditions
12:00 AM 44.6 °F - 41.0 °F 87% 30.18 in - SE 2.3 mph - N/A   Clear
1:00 AM 46.4 °F 43.5 °F 41.0 °F 81% 30.21 in - SSW 5.8 mph - N/A   Clear
2:00 AM 44.6 °F 40.7 °F 41.0 °F 87% 30.21 in - SSW 6.9 mph - N/A   Clear
3:00 AM 44 °F - 41 °F 86% 30.21 in 12 mi SSW 4.6 mph - -  
3:00 AM 44.6 °F 42.2 °F 41.0 °F 87% 30.18 in - SSW 4.6 mph - N/A   Clear
4:00 AM 44.6 °F 41.4 °F 42.8 °F 93% 30.18 in - South 5.8 mph - N/A   Clear
5:00 AM 42.8 °F - 39.2 °F 87% 30.18 in - South 2.3 mph - N/A   Clear
6:00 AM 41.0 °F - 39.2 °F 93% 30.18 in - SSE 2.3 mph - N/A   Clear
7:00 AM 41.0 °F 37.1 °F 39.2 °F 93% 30.18 in - SSE 5.8 mph - N/A   Clear
8:00 AM 48.2 °F - 42.8 °F 82% 30.21 in - SE 4.6 mph - N/A   Clear
9:00 AM 53 °F - 44 °F 62% 30.24 in 12 mi SE 3.5 mph - -  
9:00 AM 53.6 °F - 44.6 °F 72% 30.21 in - SE 3.5 mph - N/A   Clear
10:00 AM 60.8 °F - 44.6 °F 55% 30.21 in - SE 8.1 mph - N/A   Clear
11:00 AM 66.2 °F - 46.4 °F 49% 30.18 in - ESE 5.8 mph - N/A   Clear
12:00 PM 69.8 °F - 44.6 °F 40% 30.15 in - North 4.6 mph - N/A   Clear
1:00 PM 73.4 °F - 44.6 °F 36% 30.12 in - ENE 2.3 mph - N/A   Clear
2:00 PM 73.4 °F - 44.6 °F 36% 30.09 in - East 2.3 mph - N/A   Clear
3:00 PM 74 °F - 43 °F 22% 30.05 in 12 mi SSE 4.6 mph - -   Mostly Cloudy
3:00 PM 73.4 °F - 42.8 °F 33% 30.04 in - SSE 4.6 mph - N/A   Clear
4:00 PM 71.6 °F - 46.4 °F 41% 30.01 in - South 4.6 mph - N/A   Clear
5:00 PM 71.6 °F - 50.0 °F 46% 30.01 in 6.2 mi South 2.3 mph - N/A   Mostly Cloudy
6:00 PM 69.8 °F - 51.8 °F 53% 30.01 in 6.2 mi SSE 4.6 mph - N/A   Mostly Cloudy
7:00 PM 66.2 °F - 53.6 °F 64% 30.01 in - SE 4.6 mph - N/A   Clear
8:00 PM 64.4 °F - 55.4 °F 73% 29.98 in - SSE 4.6 mph - N/A   Clear
9:00 PM 64 °F - 55 °F 65% 30.00 in 12 mi SSE 5.8 mph - -   Scattered Clouds
9:00 PM 64.4 °F - 55.4 °F 73% 29.98 in 6.2 mi SSE 5.8 mph - N/A   Scattered Clouds
10:00 PM 64.4 °F - 55.4 °F 73% 29.98 in 6.2 mi ESE 6.9 mph - N/A   Scattered Clouds
11:00 PM 64.4 °F - 53.6 °F 68% 29.98 in 6.2 mi SE 4.6 mph - N/A   Scattered Clouds